This is the latest recevied weather packets stored in our database for station/object OE2ATN. If no packets are shown the sender has not sent any weather packets the latest 10 day(s).
| Time | Temp. | Humidity | Pressure | Rain* | Wind** | Luminosity | Snow |
|---|---|---|---|---|---|---|---|
| 1777198601 | 17.22° C | 33% | 1028.6 hPa | 0 mm | - | - | - |
| 1777198302 | 17.22° C | 32% | 1028.5 hPa | 0 mm | - | - | - |
| 1777198001 | 17.22° C | 31% | 1028.6 hPa | 0 mm | - | - | - |
| 1777197700 | 17.22° C | 34% | 1028.7 hPa | 0 mm | - | - | - |
| 1777197401 | 16.67° C | 34% | 1028.6 hPa | 0 mm | - | - | - |
| 1777197100 | 16.67° C | 31% | 1028.7 hPa | 0 mm | - | - | - |
| 1777196801 | 16.67° C | 36% | 1028.7 hPa | 0 mm | - | - | - |
| 1777196500 | 16.67° C | 33% | 1028.8 hPa | 0 mm | - | - | - |
| 1777196201 | 16.67° C | 35% | 1028.7 hPa | 0 mm | - | - | - |
| 1777195901 | 16.11° C | 34% | 1028.6 hPa | 0 mm | - | - | - |
| 1777195601 | 16.11° C | 34% | 1028.8 hPa | 0 mm | - | - | - |
| 1777195300 | 16.11° C | 34% | 1028.8 hPa | 0 mm | - | - | - |
| 1777195000 | 16.67° C | 35% | 1028.8 hPa | 0 mm | - | - | - |
| 1777194700 | 16.11° C | 33% | 1028.7 hPa | 0 mm | - | - | - |
| 1777194400 | 16.11° C | 33% | 1028.8 hPa | 0 mm | - | - | - |
| 1777194099 | 15.56° C | 33% | 1028.9 hPa | 0 mm | - | - | - |
| 1777193800 | 15.56° C | 34% | 1028.9 hPa | 0 mm | - | - | - |
| 1777193499 | 15.56° C | 37% | 1028.8 hPa | 0 mm | - | - | - |
| 1777193199 | 15.56° C | 34% | 1028.8 hPa | 0 mm | - | - | - |
| 1777192899 | 15.56° C | 37% | 1028.8 hPa | 0 mm | - | - | - |
| 1777192599 | 15.56° C | 37% | 1028.8 hPa | 0 mm | - | - | - |
| 1777192298 | 15.56° C | 38% | 1028.8 hPa | 0 mm | - | - | - |
| 1777191998 | 15.56° C | 40% | 1028.8 hPa | 0 mm | - | - | - |
| 1777191698 | 15.56° C | 41% | 1028.9 hPa | 0 mm | - | - | - |
| 1777191398 | 15° C | 39% | 1028.9 hPa | 0 mm | - | - | - |
* Rain latest hour (hover to see other rain measurements)
** Current wind speed in m/s (hover to see current wind gust speed)